EW4423 Weather Reports


Display with metric or nautical units.
time (UTC)temp
F
wind
direction
speed
MPH
gust
MPH
rain 1hr
in
rain 24hr
in
rain mn
in
humidity
%
barometer
mb
20260904100027 74 122 2.0 3.0 0.00 0.03 0.00 88 1016.3
20260904094503 74 137 2.0 4.0 0.00 0.03 0.00 86 1016.2
20260904093022 74 152 1.0 3.0 0.00 0.03 0.00 87 1016.2
20260904091504 74 141 3.0 5.0 0.00 0.03 0.00 87 1016.0
20260904090018 74 150 3.0 6.0 0.00 0.03 0.00 87 1015.9
20260904084526 74 151 2.0 3.0 0.00 0.03 0.00 87 1015.8
20260904083008 74 150 2.0 4.0 0.00 0.03 0.00 87 1015.8
20260904081508 74 166 0.0 2.0 0.00 0.04 0.00 85 1015.7
20260904080016 75 166 1.0 2.0 0.00 0.04 0.00 85 1015.6
20260904074511 75 166 2.0 4.0 0.00 0.08 0.00 85 1015.7
20260904073033 74 152 1.0 3.0 0.00 0.23 0.00 84 1015.8
20260904071508 75 202 0.0 1.0 0.00 0.35 0.00 82 1015.8
20260904070030 76 202 1.0 2.0 0.00 0.36 0.00 81 1015.8
20260904064519 76 202 0.0 2.0 0.00 0.42 0.00 81 1015.9
20260904063008 76 202 0.0 0.0 0.00 0.42 0.00 81 1015.8
20260904061529 76 202 0.0 0.0 0.00 0.42 0.00 81 1015.8
20260904060008 76 202 0.0 1.0 0.00 0.42 0.00 81 1015.8
20260904054520 76 202 0.0 2.0 0.00 0.42 0.00 81 1015.8
20260904053032 76 202 1.0 2.0 0.00 0.42 0.00 82 1015.6
20260904051510 78 202 1.0 4.0 0.00 0.42 0.00 79 1015.6
20260904050030 78 202 2.0 4.0 0.00 0.42 0.00 77 1015.5
20260904044518 79 202 1.0 2.0 0.00 0.42 0.42 76 1015.6
20260904043014 78 201 1.0 2.0 0.00 0.42 0.42 77 1015.6
20260904041524 79 201 1.0 3.0 0.00 0.42 0.42 75 1015.7
20260904040031 80 204 2.0 3.0 0.00 0.42 0.42 74 1015.8
20260904034522 80 198 3.0 4.0 0.00 0.42 0.42 74 1015.7
20260904033011 81 212 3.0 5.0 0.00 0.42 0.42 72 1015.8
20260904031510 81 213 3.0 6.0 0.00 0.42 0.42 70 1015.7
20260904030025 81 196 5.0 6.0 0.00 0.42 0.42 72 1015.5
20260904024533 81 185 4.0 6.0 0.00 0.42 0.42 71 1015.3
20260904023018 82 177 4.0 5.0 0.00 0.42 0.42 70 1015.1
20260904021528 82 176 3.0 5.0 0.00 0.42 0.42 69 1014.9
20260904020023 83 185 3.0 4.0 0.00 0.42 0.42 67 1014.7
20260904014524 83 191 4.0 6.0 0.00 0.42 0.42 66 1014.4
20260904013031 85 199 4.0 5.0 0.00 0.42 0.42 64 1014.1
20260904011516 86 221 3.0 5.0 0.00 0.42 0.42 61 1014.0
20260904010027 86 200 5.0 6.0 0.00 0.42 0.42 61 1013.8
20260904004509 87 185 6.0 10.0 0.00 0.42 0.42 58 1013.9
20260904003018 88 189 5.0 11.0 0.00 0.42 0.42 57 1013.8
20260904001507 89 197 11.0 15.0 0.00 0.42 0.42 55 1013.8
20260904000014 91 209 10.0 14.0 0.00 0.42 0.42 53 1013.8
20260903234520 92 195 10.0 17.0 0.00 0.42 0.42 51 1013.6
20260903233007 94 173 8.0 19.0 0.00 0.42 0.42 50 1013.6
20260903231522 95 206 12.0 19.0 0.00 0.42 0.42 48 1013.4
20260903230032 96 193 12.0 20.0 0.00 0.42 0.42 48 1013.4
20260903224513 96 188 11.0 20.0 0.00 0.42 0.42 48 1013.6
20260903223036 96 167 8.0 14.0 0.00 0.42 0.42 47 1013.6
20260903221527 97 183 9.0 16.0 0.00 0.42 0.42 48 1013.6
20260903220020 96 179 7.0 13.0 0.00 0.42 0.42 48 1013.8
20260903214511 95 183 4.0 11.0 0.00 0.42 0.42 50 1014.1
20260903213011 95 196 10.0 14.0 0.00 0.42 0.42 51 1014.2
20260903211527 94 228 3.0 13.0 0.00 0.42 0.42 49 1014.3
20260903210027 93 142 4.0 13.0 0.00 0.42 0.42 53 1014.5
20260903204516 93 190 10.0 15.0 0.00 0.42 0.42 57 1014.6
20260903203034 94 194 12.0 17.0 0.00 0.42 0.42 54 1015.0
20260903201520 92 181 8.0 14.0 0.00 0.42 0.42 57 1015.2
20260903200018 92 200 8.0 18.0 0.00 0.42 0.42 57 1015.5
20260903194540 90 224 7.0 12.0 0.00 0.42 0.42 62 1015.7
20260903193019 90 201 7.0 11.0 0.00 0.42 0.42 62 1015.9
20260903191529 87 152 1.0 8.0 0.00 0.42 0.42 64 1016.1
20260903190024 83 203 5.0 10.0 0.00 0.42 0.42 71 1016.5
20260903184519 85 226 7.0 15.0 0.00 0.42 0.42 69 1016.8
20260903183029 86 212 10.0 16.0 0.00 0.42 0.42 67 1017.0
20260903181532 84 226 8.0 17.0 0.00 0.42 0.42 71 1017.1
20260903180033 84 258 10.0 18.0 0.01 0.42 0.42 73 1017.3
20260903174526 81 201 5.0 14.0 0.02 0.42 0.42 80 1017.7
20260903173017 79 219 9.0 13.0 0.02 0.42 0.42 84 1017.8
20260903171529 78 195 5.0 13.0 0.02 0.42 0.42 86 1017.9
20260903170034 77 166 4.0 11.0 0.01 0.41 0.41 87 1017.9
20260903164520 78 171 10.0 19.0 0.00 0.40 0.40 83 1017.9
20260903163027 79 186 11.0 19.0 0.00 0.40 0.40 79 1017.9
20260903161532 81 208 13.0 18.0 0.00 0.40 0.40 77 1017.7
20260903160037 81 192 18.0 22.0 0.00 0.40 0.40 76 1017.5
20260903154510 81 203 13.0 18.0 0.00 0.40 0.40 76 1017.5
20260903153016 80 193 10.0 17.0 0.00 0.40 0.40 79 1017.3
20260903151516 79 172 8.0 17.0 0.00 0.40 0.40 80 1017.2
20260903150015 80 175 8.0 16.0 0.00 0.40 0.40 80 1017.3
20260903144520 78 186 11.0 15.0 0.00 0.40 0.40 81 1017.4
20260903143014 80 191 10.0 16.0 0.00 0.40 0.40 82 1017.2
20260903141517 78 182 8.0 12.0 0.00 0.40 0.40 83 1017.4
20260903140020 78 161 7.0 10.0 0.00 0.40 0.40 84 1017.3
20260903134512 76 186 7.0 11.0 0.00 0.40 0.40 87 1017.4
20260903133017 76 173 6.0 17.0 0.00 0.40 0.40 87 1017.3
20260903131518 75 194 10.0 14.0 0.00 0.40 0.40 87 1017.1
20260903130021 75 170 6.0 11.0 0.00 0.40 0.40 88 1017.3
20260903124520 75 156 5.0 12.0 0.00 0.40 0.40 90 1017.1
20260903123026 74 153 6.0 10.0 0.00 0.40 0.40 89 1017.0
20260903121544 75 165 7.0 11.0 0.00 0.40 0.40 89 1016.8
20260903120021 75 162 7.0 12.0 0.00 0.40 0.40 89 1016.8
20260903114518 74 172 6.0 10.0 0.01 0.40 0.40 89 1016.7
20260903113025 74 160 6.0 13.0 0.01 0.40 0.40 90 1016.7
20260903111524 74 169 7.0 11.0 0.01 0.40 0.40 89 1016.5
20260903110023 74 170 7.0 14.0 0.01 0.40 0.40 89 1016.2
20260903104545 74 176 7.0 14.0 0.00 0.39 0.39 90 1016.3
20260903103025 74 124 7.0 9.0 0.00 0.39 0.39 90 1016.4
20260903101524 74 163 7.0 11.0 0.00 0.39 0.39 89 1016.4